Location: *
(46.3500°N, 10.9000°E)
Time: 21:21:03
(UTC+00:00)

Explorer 7 - Pass Details

Date: 19 April 2021
Orbit: 484 x 677 km, 50.3° (Epoch: 13 May)

Event Time Altitude Azimuth Distance (km) Brightness Sun altitude
Rises 01:27:08 0° 293° (WNW) 2,867 - -25.3°
Reaches altitude 10° 01:29:26 10° 288° (WNW) 1,991 - -25.1°
Maximum altitude 01:33:52 49° 214° (SW) 831 - -24.6°
Drops below altitude 10° 01:38:29 10° 140° (SE) 2,074 - -24.1°
Exits shadow 01:39:42 - 137° (SE) 2,532 10.1 -24.0°
Sets 01:40:56 0° 135° (SE) 3,000 10.5 -23.9°
